EHI
0 0 0 0 0 0 0 0 0 0 0 0 0 0 0 0 0 0 0 0 0 0 0 0 0 0 0 0 0 0 0 0 0 0 0 0 0 0 0 0 0 0 0 0
0 0 0 0 0 0 0 0 0 0 0 0 0 0 0 0 0 0 0 0 0 0 0 0 0 0 0 0 0 0 0 0 0 0 0 0 0 0 0 0 0 0 0 0
0 0 0 0 0 0 0 0 0 0 0 0 0 0 0 0 0 0 0 0 0 0 0 0 0 0 0 0 0 0 0 0 0 0 0 0 0 0 0 0 0 0 0 0
0 0 0 0 0 0 0 0 0 0 0 0 0 0 0 0 0 0 0 0 0 0 0 0 0 0 0 0 0 0 0 0 0 0 0 0 0 0 0 0 0 0 0 0
0 0 0 0 0 0 0 0 0 0 0 0 0 0 0 0 0 0 0 0 0 0 0 0 0 0 0 0 0 0 0 0 0 0 0 0 0 0 0 0 0 0 0 0
0 0 0 0 0 0 0 0 0 0 0 0 0 0 0 0 0 0 0 0 0 0 0 0 0 0 0 0 0 0 0 0 0 0 0 0 0 0 0 0 0 0 0 0
0 0 0 0 0 0 0 0 0 0 0 0 0 0 0 0 0 0 0 0 0 0 0 0 0 0 0 0 0 0 0 0 0 0 0 0 0 0 0 0 0 0 0 0
0 0 0 0 0 0 0 0 0 0 0 0 0 0 0 0 0 0 0 0 0 0 0 0 0 0 0 0 0 0 0 0 0 0 0 0 0 0 0 0 0 0 0 0
0 0 0 0 0 0 0 0 0 0 0 0 0 0 0 0 0 0 0 0 0 0 0 0 0 0 0 0 0 0 0 0 0 0 0 0 0 0 0 0 0 0 0 0
0 0 0 0 0 0 0 0 0 0 0 0 0 0 0 0 0 0 0 0 0 0 0 0 0 0 0 0 0 0 0 0 0 0 0 0 0 0 0 0 0 0 0 0
0 0 0 0 0 0 0 0 0 0 0 0 0 0 0 0 0 0 0 0 0 0 0 0 0 0 0 0 0 0 0 0 0 0 0 0 0 0 0 0 0 0 0 0
0 0 0 0 0 0 0 0 0 0 0 0 0 0 0 0 0 0 0 0 0 0 0 0 0 0 0 0 0 0 0 0 0 0 0 0 0 0 0 0 0 0 0 0
0 0 0 0 0 0 0 0 0 0 0 0 0 0 0 0 0 0 0 0 0 0 0 0 0 0 0 0 0 0 0 0 0 0 0 0 0 0 0 0 0 0 0 0
0 0 0 0 0 0 0 0 0 0 0 0 0 0 0 0 0 0 0 0 0 0 0 0 0 0 0 0 0 0 0 0 0 0 0 0 0 0 0 0 0 0 0 0
0 0 0 0 0 0 0 0 0 0 0 0 0 0 0 0 0 0 0 0 0 0 0 0 0 0 0 0 0 0 0 0 0 0 0 0 0 0 0 0 0 0 0 0
0 0 0 0 0 0 0 0 0 0 0 0 0 0 0 0 0 0 0 0 0 0 0 0 0 0 0 0 0 0 0 0 0 0 0 0 0 0 0 0 0 0 0 0
0 0 0 0 0 0 0 0 0 0 0 0 0 0 0 0 0 0 0 0 0 0 0 0 0 0 0 0 0 0 0 0 0 0 0 0 0 0 0 0 0 0 0 0
0 0 0 0 0 0 0 0 0 0 0 0 0 0 0 0 0 0 0 0 0 0 0 0 0 0 0 0 0 0 0 0 0 0 0 0 0 0 0 0 0 0 0 0
0 0 0 0 0 0 0 0 0 0 0 0 0 0 0 0 0 0 0 0 0 0 0 0 0 0 0 0 0 0 0 0 0 0 0 0 0 0 0 0 0 0 0 0
0 0 0 0 0 0 0 0 0 0 0 0 0 0 0 0 0 0 0 0 0 0 0 0 0 0 0 0 0 0 0 0 0 0 0 0 0 0 0 0 0 0 0 0
0 0 0 0 0 0 0 0 0 0 0 0 0 0 0 0 0 0 0 0 0 0 0 0 0 0 0 0 0 0 0 0 0 0 0 0 0 0 0 0 0 0 0 0
0 0 0 0 0 0 0 0 0 0 0 0 0 0 0 0 0 0 0 0 0 0 0 0 0 0 0 0 0 0 0 0 0 0 0 0 0 0 0 0 0 0 0 0
0 0 0 0 0 0 0 0 0 0 0 0 0 0 0 0 0 0 0 0 0 0 0 0 0 0 0 0 0 0 0 0 0 0 0 0 0 0 0 0 0 0 0 0
0 0 0 0 0 0 0 0 0 0 0 0 0 0 0 0 0 0 0 0 0 0 0 0 0 0 0 0 0 0 0 0 0 0 0 0 0 0 0 0 0 0 0 0
0 0 0 0 0 0 0 0 0 0 0 0 0 0 0 0 0 0 0 0 0 0 0 0 0 0 0 0 0 0 0 0 0 0 0 0 0 0 0 0 0 0 0 0
0 0 0 0 0 0 0 0 0 0 0 0 0 0 0 0 0 0 0 0 0 0 0 0 0 0 0 0 0 0 0 0 0 0 0 0 0 0 0 0 0 0 0 0
Wind_Speed
4 5 0 3 3 2 2 2 4 5 2 2 5 9 10 5 3 4 4 4 4 5 4 2 1 1 1 1 1 2 2 1 2 1 1 1 0 1 1 1 1 2 1 2
4 1 3 2 2 2 1 2 3 4 3 2 5 9 8 5 4 4 4 5 5 5 4 3 1 1 2 2 2 2 2 2 2 1 1 1 1 0 1 1 1 2 2 1
4 2 1 1 1 1 2 4 4 4 5 3 4 8 4 3 1 2 2 3 3 4 4 4 3 2 2 3 3 2 2 2 2 1 2 2 2 2 1 1 1 1 1 1
0 2 0 1 0 1 3 2 2 2 2 4 2 6 7 3 4 3 3 3 4 4 4 3 3 3 3 3 2 2 2 1 1 2 2 3 2 2 2 1 1 1 1 1
2 1 0 1 2 2 2 1 1 0 1 3 1 3 9 3 5 5 4 4 4 4 3 3 3 3 2 2 2 2 2 1 1 2 2 2 2 1 1 0 1 0 0 1
2 1 1 2 0 1 1 2 3 3 3 3 3 4 9 4 5 4 3 4 4 4 3 3 2 1 1 1 1 2 2 2 2 2 2 2 2 1 1 1 1 0 0 0
3 1 1 1 2 2 3 4 4 5 3 6 1 4 11 5 3 3 4 4 4 3 3 3 3 2 2 1 1 1 2 2 2 2 2 2 2 2 3 2 2 1 1 1
1 4 2 0 2 3 2 3 4 4 5 6 2 8 9 3 2 3 3 3 3 3 3 3 3 2 2 2 1 1 2 2 2 2 2 2 2 2 2 2 2 2 2 2
3 5 1 0 0 4 4 2 2 4 0 4 7 8 10 3 3 3 3 3 4 3 3 3 3 3 2 2 2 1 1 1 2 2 2 2 2 2 2 1 1 2 1 1
4 3 2 1 2 2 2 5 4 4 2 5 8 6 6 5 5 3 3 4 4 4 3 3 3 3 2 2 2 1 0 1 1 1 2 2 2 2 2 1 2 2 2 1
2 3 3 0 4 5 4 3 4 3 4 4 6 9 5 5 4 4 4 4 4 4 4 3 3 3 2 2 2 1 1 1 1 1 1 2 1 1 1 2 2 2 2 2
3 3 3 5 2 1 4 6 7 5 5 5 4 11 2 3 3 3 4 4 3 3 3 3 3 3 2 2 2 2 2 2 2 1 1 1 1 1 1 2 2 2 2 2
5 4 2 4 2 1 2 3 4 4 3 5 6 11 1 1 2 2 3 4 4 3 3 3 3 2 3 2 2 2 2 3 2 1 1 1 1 1 2 2 2 2 2 2
4 4 7 8 6 4 4 5 5 6 5 7 12 13 8 6 5 5 4 4 4 4 3 3 3 3 3 3 2 2 3 3 1 1 1 1 2 2 2 2 2 2 3 3
3 4 5 7 5 3 7 8 8 11 11 11 11 11 14 9 7 6 5 4 4 5 5 4 4 4 3 3 3 2 2 2 1 1 1 2 2 2 2 2 2 2 2 3
2 3 1 5 3 4 9 10 10 12 10 12 12 15 11 7 4 5 5 4 6 6 6 5 4 4 4 3 3 2 2 1 1 1 2 2 1 1 1 2 2 1 2 2
3 4 2 5 3 4 11 10 11 8 9 9 13 14 5 5 6 6 5 5 6 7 5 5 4 4 4 3 2 3 2 1 1 1 2 1 1 1 1 1 1 2 2 2
5 4 2 2 2 10 9 2 6 8 9 9 9 8 6 7 6 5 4 5 6 5 5 5 4 3 3 2 2 2 1 1 1 1 1 1 1 1 1 1 2 2 2 2
4 6 3 2 5 11 8 3 5 6 8 8 10 10 7 4 4 5 4 4 5 5 4 4 3 3 2 2 2 1 1 1 1 1 2 2 2 2 2 2 2 2 2 2
2 2 4 4 5 10 7 2 3 3 7 4 6 7 4 1 2 5 2 2 3 3 3 3 2 2 2 2 1 0 1 1 2 2 3 2 2 2 2 3 3 2 2 2
3 3 5 7 8 12 6 3 5 4 7 2 4 4 3 5 6 4 3 2 2 2 3 2 2 2 2 1 0 1 1 2 3 2 2 2 1 2 2 2 2 2 2 1
9 7 7 6 7 12 4 6 8 7 2 1 2 2 4 5 5 5 4 4 3 3 2 2 2 2 2 1 1 2 3 3 2 1 1 2 2 1 1 1 1 1 1 1
9 10 8 11 10 4 6 6 4 1 2 2 3 3 3 4 5 5 4 4 4 3 3 2 2 3 2 1 1 2 3 2 1 1 1 1 2 1 1 1 1 1 1 1
5 2 4 7 9 6 5 4 4 4 4 4 4 4 3 5 5 5 5 5 4 3 3 2 2 3 3 2 2 3 2 1 1 1 1 1 1 1 1 1 1 1 1 2
6 6 5 8 7 5 5 5 5 4 3 3 3 3 4 4 5 5 5 5 4 4 3 2 2 3 4 3 3 3 2 1 1 1 1 1 1 1 1 1 1 2 2 3
6 8 8 8 6 5 6 3 2 3 4 4 4 4 4 4 5 5 5 4 4 3 2 3 3 3 4 3 3 3 2 1 1 2 2 1 1 1 1 1 2 4 4 6
Wind_Direction
30 66 119 230 208 198 176 202 255 266 308 302 261 272 281 286 276 278 280 275 273 274 287 290 269 193 162 151 152 158 144 125 114 111 110 107 110 39 41 40 59 65 76 99
47 339 260 244 193 191 200 248 271 290 331 308 292 281 277 268 251 251 259 266 272 287 301 296 282 198 191 195 191 182 177 171 162 163 153 149 144 95 30 15 25 55 55 67
152 242 284 121 82 207 236 218 241 273 322 337 324 300 286 291 292 296 275 273 287 277 283 287 269 227 205 206 206 210 203 188 173 121 96 87 73 58 50 17 357 19 41 58
211 296 5 108 224 181 264 243 238 275 329 309 10 297 287 287 303 291 280 279 282 290 290 287 280 249 218 215 208 208 201 186 161 138 138 143 156 181 199 212 235 329 51 52
268 306 118 216 244 187 227 14 58 242 179 310 305 247 283 319 293 281 270 271 280 289 289 286 279 265 245 211 199 199 188 173 152 149 161 164 183 197 159 110 133 67 27 43
243 270 192 215 306 154 126 58 49 52 77 282 232 201 277 250 243 277 284 287 299 311 312 307 310 321 320 251 195 185 178 185 168 166 173 180 186 167 136 144 181 242 305 312
325 291 327 81 83 39 61 75 15 353 349 257 215 219 252 255 248 257 280 290 304 316 325 325 329 331 324 313 240 197 186 206 187 180 193 202 199 189 192 195 198 205 232 261
299 289 254 147 156 165 170 141 159 222 251 286 283 240 254 265 289 295 291 292 312 318 316 314 318 320 316 311 278 219 207 226 207 199 212 208 206 200 209 212 207 206 219 232
191 258 335 84 98 138 143 182 158 137 247 285 270 281 297 288 299 303 306 308 300 300 307 313 323 330 330 327 301 245 230 244 229 215 219 212 206 206 211 212 219 216 225 230
169 251 282 333 79 39 128 143 112 135 207 270 285 272 259 275 273 284 289 280 285 302 312 315 321 329 330 327 327 337 287 264 273 240 226 226 217 215 214 196 220 228 224 219
151 190 288 314 199 190 142 142 145 147 175 195 271 269 231 229 243 248 265 271 276 288 294 300 309 320 329 340 341 326 312 296 289 269 245 236 230 214 197 207 221 223 223 217
161 146 252 245 220 170 180 181 160 176 224 203 229 268 267 226 254 251 273 286 286 283 291 299 306 322 334 333 329 324 305 289 275 261 244 240 235 215 210 224 235 225 224 224
148 137 324 326 329 332 225 203 181 153 146 187 215 262 317 360 313 276 274 285 289 294 298 305 308 308 306 305 309 307 301 279 269 248 223 221 220 218 232 242 248 236 229 228
127 171 199 224 237 193 218 212 181 164 195 224 230 254 276 287 287 289 281 277 283 287 288 290 291 290 290 292 292 291 293 288 268 224 200 220 233 232 239 248 252 245 233 227
134 219 236 255 265 236 234 225 198 206 213 224 245 245 261 263 264 270 275 282 289 292 286 282 282 282 284 290 294 293 299 308 266 185 212 238 247 247 246 253 255 254 244 236
144 206 248 274 255 253 262 247 221 227 233 243 261 267 265 272 273 270 268 270 280 285 284 282 277 276 277 279 285 291 292 289 223 205 230 246 246 251 252 261 267 263 258 249
165 160 203 267 297 318 267 233 206 213 214 206 234 250 274 280 266 261 264 264 268 277 284 281 275 273 278 278 276 274 279 284 210 230 246 250 240 249 257 267 287 276 268 266
162 163 195 271 7 249 249 177 190 212 237 222 241 262 261 258 276 276 250 251 268 276 279 283 283 285 291 298 305 307 326 311 247 248 250 247 241 254 266 262 267 276 273 266
181 168 175 189 250 272 285 225 174 199 262 223 233 258 271 289 319 292 265 238 250 263 270 272 274 274 286 296 302 329 328 328 312 284 262 244 233 245 255 261 263 267 266 267
98 143 170 183 223 250 254 202 172 122 280 247 213 242 258 53 293 274 295 299 288 290 284 284 291 290 288 298 309 240 293 303 280 277 277 265 232 230 241 252 263 263 252 258
158 172 202 213 236 261 255 176 133 178 254 266 201 223 205 209 231 272 310 303 292 291 288 288 284 280 279 289 261 253 274 270 280 293 299 297 272 247 242 247 257 259 260 261
180 182 199 186 220 253 187 146 186 222 276 242 237 234 229 245 273 290 292 293 295 298 299 289 286 291 301 298 245 268 274 284 300 305 308 305 294 276 265 251 272 265 250 254
201 196 191 198 219 243 170 196 223 240 252 253 250 264 253 264 271 281 283 282 281 279 282 276 272 290 302 297 256 263 287 300 297 305 299 297 298 294 284 259 267 279 264 255
237 204 202 243 256 251 237 247 257 244 247 263 265 266 256 259 269 276 278 279 279 280 275 269 273 286 293 293 284 271 291 294 274 281 293 296 295 301 308 287 268 259 253 256
215 177 212 248 267 290 264 239 248 256 259 268 273 261 255 258 269 270 276 275 271 276 278 267 260 272 284 296 293 294 298 275 267 281 285 293 296 291 293 288 263 256 239 240
193 186 194 232 227 218 251 247 250 250 260 264 271 279 272 254 264 275 276 274 269 269 267 272 274 280 288 296 297 301 291 246 233 270 277 273 275 272 267 274 300 296 289 290